FW3754 Weather Reports


Display with metric or nautical units.
time (UTC)temp
F
wind
direction
speed
MPH
gust
MPH
rain 1hr
in
rain 24hr
in
rain mn
in
humidity
%
barometer
mb
20260906084550 76 155 1.0 0.0 0.00 0.00 0.00 95 1010.7
20260906083050 76 163 0.0 0.0 0.00 0.00 0.00 95 1010.7
20260906081549 76 163 0.0 0.0 0.00 0.00 0.00 95 1010.6
20260906080047 76 163 0.0 0.0 0.00 0.00 0.00 95 1010.7
20260906074545 76 163 0.0 0.0 0.00 0.00 0.00 95 1010.9
20260906073043 76 5 0.0 0.0 0.00 0.00 0.00 94 1011.1
20260906071542 76 9 0.0 0.0 0.00 0.00 0.00 94 1011.2
20260906070041 77 88 1.0 0.0 0.00 0.00 0.00 94 1011.2
20260906064540 77 67 2.0 0.0 0.00 0.00 0.00 94 1011.3
20260906063041 77 65 0.0 0.0 0.00 0.00 0.00 95 1011.7
20260906061538 77 342 0.0 0.0 0.00 0.00 0.00 95 1011.9
20260906060037 77 57 0.0 0.0 0.00 0.00 0.00 95 1012.3
20260906054541 77 95 4.0 0.0 0.00 0.00 0.00 95 1012.6
20260906053039 77 134 2.0 0.0 0.00 0.00 0.00 95 1012.6
20260906051548 77 197 4.0 0.0 0.00 0.00 0.00 95 1012.5
20260906050035 78 120 2.0 0.0 0.00 0.00 0.00 95 1012.2
20260906044533 77 263 0.0 0.0 0.00 0.00 0.00 95 1011.6
20260906043030 77 282 0.0 0.0 0.00 0.00 0.00 95 1012.0
20260906041527 77 328 0.0 0.0 0.00 0.00 0.00 94 1012.4
20260906040030 77 347 0.0 0.0 0.00 0.00 0.00 94 1012.6
20260906034522 77 80 1.0 0.0 0.00 0.00 0.00 94 1012.9
20260906033035 77 65 2.0 0.0 0.00 0.00 0.34 94 1013.0
20260906031525 77 59 3.0 0.0 0.00 0.00 0.34 94 1013.4
20260906030020 76 21 2.0 0.0 0.00 0.00 0.34 93 1013.9
20260906024538 77 340 2.0 0.0 0.00 0.00 0.34 93 1014.2
20260906023025 77 73 2.0 0.0 0.00 0.00 0.34 94 1014.2
20260906021519 77 46 2.0 0.0 0.00 0.00 0.34 94 1014.4
20260906020019 77 62 1.0 0.0 0.00 0.00 0.34 94 1014.5
20260906014530 78 61 1.0 0.0 0.00 0.00 0.34 93 1014.2
20260906013036 77 132 2.0 0.0 0.00 0.00 0.34 94 1013.9
20260906011518 77 126 0.0 0.0 0.00 0.00 0.34 92 1013.6
20260906010022 77 275 1.0 0.0 0.00 0.00 0.33 93 1013.1
20260906004519 77 105 1.0 0.0 0.00 0.00 0.33 93 1013.2
20260906003016 77 103 6.0 0.0 0.00 0.00 0.32 93 1013.2
20260906001521 77 132 1.0 0.0 0.00 0.00 0.31 93 1013.0
20260906000015 77 53 0.0 0.0 0.00 0.00 0.30 93 1012.7
20260905234515 77 100 1.0 0.0 0.00 0.00 0.28 92 1012.9
20260905233015 77 252 1.0 0.0 0.00 0.00 0.28 92 1013.0
20260905231514 77 202 2.0 0.0 0.00 0.00 0.26 91 1013.1
20260905230013 78 120 3.0 0.0 0.00 0.00 0.26 89 1013.3
20260905224513 77 148 1.0 0.0 0.00 0.00 0.26 92 1013.4
20260905223014 77 119 2.0 0.0 0.00 0.00 0.26 92 1013.2
20260905221512 77 281 3.0 0.0 0.00 0.00 0.26 91 1013.0
20260905220009 77 184 8.0 0.0 0.00 0.00 0.25 89 1013.3
20260905214510 81 158 2.0 0.0 0.00 0.00 0.12 85 1013.0
20260905213009 83 236 6.0 0.0 0.00 0.00 0.08 80 1012.2
20260905211507 85 178 7.0 0.0 0.00 0.00 0.08 72 1012.1
20260905210006 88 53 6.0 0.0 0.00 0.00 0.08 64 1011.8
20260905204506 94 98 5.0 0.0 0.00 0.00 0.08 63 1011.3
20260905203005 96 343 4.0 0.0 0.00 0.00 0.08 60 1011.3
20260905201505 95 329 5.0 0.0 0.00 0.00 0.08 61 1011.2
20260905200006 95 355 5.0 0.0 0.00 0.00 0.08 61 1011.4
20260905194502 95 340 4.0 0.0 0.00 0.00 0.08 61 1011.9
20260905193001 95 15 5.0 0.0 0.00 0.00 0.08 62 1011.8
20260905191601 95 5 4.0 0.0 0.00 0.00 0.08 62 1011.6
20260905184557 94 331 4.0 0.0 0.00 0.00 0.08 62 1012.2
20260905183056 93 30 4.0 0.0 0.00 0.00 0.08 66 1012.4
20260905181606 91 303 3.0 0.0 0.00 0.00 0.08 68 1012.7
20260905180052 87 319 1.0 0.0 0.00 0.00 0.08 78 1012.8
20260905174601 84 306 2.0 0.0 0.00 0.00 0.08 87 1013.1
20260905173054 82 261 3.0 0.0 0.00 0.00 0.08 86 1013.1
20260905171551 85 215 5.0 0.0 0.00 0.00 0.02 74 1013.4
20260905170048 91 25 4.0 0.0 0.00 0.00 0.00 67 1013.5
20260905164546 97 74 2.0 0.0 0.00 0.00 0.00 57 1013.2
20260905163043 96 285 3.0 0.0 0.00 0.00 0.00 60 1013.5
20260905161556 94 296 2.0 0.0 0.00 0.00 0.00 66 1013.9
20260905160036 91 315 2.0 0.0 0.00 0.00 0.00 67 1014.1
20260905154539 91 275 2.0 0.0 0.00 0.00 0.00 70 1014.2
20260905153031 90 285 2.0 0.0 0.00 0.00 0.00 71 1014.2
20260905151531 89 340 2.0 0.0 0.00 0.00 0.00 73 1014.3
20260905150026 88 12 2.0 0.0 0.00 0.00 0.00 75 1014.2
20260905144523 87 334 3.0 0.0 0.00 0.00 0.00 77 1014.2
20260905143026 86 325 3.0 0.0 0.00 0.00 0.00 80 1014.2
20260905141517 84 333 2.0 0.0 0.00 0.00 0.00 83 1014.1
20260905140012 82 35 0.0 0.0 0.00 0.00 0.00 87 1014.0
20260905134508 80 312 0.0 0.0 0.00 0.00 0.00 93 1014.1
20260905133005 78 300 0.0 0.0 0.00 0.00 0.00 94 1014.2
20260905131505 78 274 1.0 0.0 0.00 0.00 0.00 93 1014.6
20260905130007 78 42 1.0 0.0 0.00 0.00 0.00 94 1014.6
20260905124505 78 286 2.0 0.0 0.00 0.00 0.00 95 1014.5
20260905123009 78 67 0.0 0.0 0.00 0.00 0.00 97 1014.2
20260905121502 78 252 0.0 0.0 0.00 0.00 0.00 96 1014.4
20260905120001 78 227 0.0 0.0 0.00 0.00 0.00 96 1014.0
20260905114502 78 158 0.0 0.0 0.00 0.00 0.00 96 1013.8
20260905113001 78 158 0.0 0.0 0.00 0.00 0.00 96 1013.6
20260905111503 78 158 0.0 0.0 0.00 0.00 0.00 96 1013.6
20260905110101 78 119 0.0 0.0 0.00 0.00 0.00 96 1013.5
20260905104614 78 119 0.0 0.0 0.00 0.00 0.00 97 1013.5
20260905103100 78 119 0.0 0.0 0.00 0.00 0.00 96 1013.2
20260905101603 78 119 0.0 0.0 0.00 0.00 0.00 96 1013.2
20260905100101 78 119 0.0 0.0 0.00 0.00 0.00 96 1013.1
20260905094600 78 119 0.0 0.0 0.00 0.00 0.00 96 1012.9
20260905093058 78 119 0.0 0.0 0.00 0.00 0.00 96 1012.8
20260905091626 79 119 0.0 0.0 0.00 0.00 0.00 96 1012.8
20260905090056 78 119 0.0 0.0 0.00 0.00 0.00 96 1012.7